Weather reports worldwide

Advertisment
Vigo Peinador, Spain (8045): temperature & dewpoint: 19.09.2020 01:00:00 - 25.09.2020 01:00:00 (CEST)Vigo Peinador, Spain (8045): wind speed: 19.09.2020 01:00:00 - 25.09.2020 01:00:00 (CEST)Vigo Peinador, Spain (8045): wind direction: 19.09.2020 01:00:00 - 25.09.2020 01:00:00 (CEST)Vigo Peinador, Spain (8045): reduced air pressure: 19.09.2020 01:00:00 - 25.09.2020 01:00:00 (CEST)Vigo Peinador, Spain (8045): visibility: 19.09.2020 01:00:00 - 25.09.2020 01:00:00 (CEST)Vigo Peinador, Spain (8045): precipitation: 19.09.2020 01:00:00 - 25.09.2020 01:00:00 (CEST)
Date & Time tt [°C] td [°C] ff [km/h] ff [kn] dd ppp [hPa] vv [km] rr [mm]
25.09.2020 01:00:00 13,0 11,4 13 7 NNW 1022,8 10 -
25.09.2020 00:00:00 13,7 11,6 9 5 NNW 1022,2 10 -
24.09.2020 23:00:00 14,2 11,7 11 6 NW 1021,9 30 -
24.09.2020 22:00:00 14,3 12,0 13 7 NNW 1021,2 10 -
24.09.2020 21:00:00 15,3 12,2 9 5 NW 1020,1 10 -
24.09.2020 20:00:00 15,5 14,0 15 8 W 1019,6 10 -
24.09.2020 19:00:00 14,9 14,3 11 6 SW 1019,2 10 -
24.09.2020 18:00:00 16,8 13,1 11 6 W 1018,6 10 -
24.09.2020 17:00:00 16,5 14,0 11 6 W 1018,7 30 -
24.09.2020 16:00:00 15,0 14,6 15 8 WNW 1018,9 10 -
24.09.2020 15:00:00 17,7 13,3 15 8 SW 1018,4 10 -
24.09.2020 14:00:00 14,6 14,4 11 6 - 1018,8 10 -
24.09.2020 13:00:00 16,4 12,3 16 9 WNW 1018,1 10 -
24.09.2020 12:00:00 16,5 12,3 18 10 SW 1017,8 10 -
24.09.2020 11:00:00 15,5 15,5 4 2 - 1017,4 10 -
24.09.2020 10:00:00 14,2 14,2 5 3 S 1016,9 1,5 -
24.09.2020 09:00:00 13,8 13,8 5 3 SSW 1016,2 0,4 -
24.09.2020 08:00:00 14,0 14,0 4 2 - 1016,0 0,3 -
24.09.2020 07:00:00 13,7 13,7 5 3 WNW 1015,9 8 -
24.09.2020 06:00:00 14,2 14,2 4 2 SSE 1015,9 7 -
24.09.2020 05:00:00 14,4 14,4 5 3 S 1016,0 0,3 -
24.09.2020 04:00:00 14,4 14,4 5 3 S 1016,6 1,5 -
24.09.2020 03:00:00 14,6 14,6 8 4 SSW 1016,4 10 -
24.09.2020 02:00:00 14,8 14,8 8 4 SW 1016,6 10 -
24.09.2020 01:00:00 14,7 14,7 5 3 SSW 1016,5 8 -
24.09.2020 00:00:00 15,4 15,4 11 6 W 1016,1 10 -
23.09.2020 23:00:00 15,5 15,5 5 3 SW 1015,8 12 -
23.09.2020 22:00:00 15,5 15,3 5 3 - 1015,6 10 -
23.09.2020 21:00:00 16,2 15,3 11 6 WSW 1014,9 10 -
23.09.2020 20:00:00 16,9 15,8 13 7 WSW 1014,5 20 -
23.09.2020 19:00:00 17,8 14,5 15 8 W 1014,3 10 -
23.09.2020 18:00:00 18,1 14,4 18 10 W 1014,0 10 -
23.09.2020 17:00:00 18,2 16,1 15 8 WSW 1013,8 10 -
23.09.2020 16:00:00 18,9 17,0 16 9 SW 1013,9 10 -
23.09.2020 15:00:00 17,9 16,7 13 7 W 1014,0 10 -
23.09.2020 14:00:00 17,7 17,7 9 5 SSW 1014,0 12 -
23.09.2020 13:00:00 17,1 17,1 11 6 W 1014,0 4,0 -
23.09.2020 12:00:00 17,2 17,2 13 7 WSW 1013,4 3,0 -
23.09.2020 11:00:00 17,3 17,3 8 4 SW 1012,9 8 -
23.09.2020 10:00:00 17,1 17,1 5 3 SW 1012,6 8 -
23.09.2020 09:00:00 16,7 16,7 2 1 - 1012,2 9 -
23.09.2020 08:00:00 16,8 16,8 8 4 SW 1011,5 12 -
23.09.2020 07:00:00 16,7 16,7 4 2 - 1011,4 10 -
23.09.2020 06:00:00 16,6 16,6 5 3 SSW 1011,5 10 -
23.09.2020 05:00:00 16,8 16,8 5 3 W 1011,6 10 -
23.09.2020 04:00:00 17,1 17,1 4 2 - 1011,9 10 -
23.09.2020 03:00:00 17,4 17,4 8 4 WSW 1012,0 10 -
23.09.2020 02:00:00 17,4 17,4 16 9 SW 1011,9 2,0 -
23.09.2020 01:00:00 17,0 17,0 18 10 S 1011,9 0,8 -
23.09.2020 00:00:00 16,8 16,8 16 9 S 1012,7 0,8 -
22.09.2020 23:00:00 16,9 16,9 16 9 S 1013,4 2,0 -
22.09.2020 22:00:00 17,1 17,1 15 8 S 1013,4 10 -
22.09.2020 21:00:00 17,4 17,4 11 6 SW 1013,2 10 -
22.09.2020 20:00:00 18,7 17,9 13 7 S 1013,0 20 -
22.09.2020 19:00:00 19,6 16,8 11 6 SSW 1013,3 10 -
22.09.2020 18:00:00 20,3 16,5 13 7 S 1013,3 10 -
22.09.2020 17:00:00 19,9 16,4 13 7 S 1014,1 30 -
22.09.2020 16:00:00 19,6 16,8 5 3 - 1014,6 10 -
22.09.2020 15:00:00 20,5 14,7 15 8 SW 1015,3 10 -
22.09.2020 14:00:00 21,2 13,6 11 6 S 1015,6 10 -
22.09.2020 13:00:00 19,6 13,9 9 5 SSE 1016,3 10 -
22.09.2020 12:00:00 15,8 15,8 9 5 SSW 1017,1 10 -
22.09.2020 11:00:00 14,0 14,0 5 3 SSW 1017,4 0,2 -
22.09.2020 10:00:00 13,2 13,2 9 5 SSW 1017,4 0,2 -
22.09.2020 09:00:00 12,9 12,9 2 1 - 1017,4 0,1 -
22.09.2020 08:00:00 12,9 12,9 9 5 SSW 1017,3 0,1 0,0
22.09.2020 07:00:00 13,4 13,4 11 6 SSW 1017,2 0,1 -
22.09.2020 06:00:00 13,6 13,6 9 5 SSW 1017,3 0,1 -
22.09.2020 05:00:00 13,8 13,8 8 4 SW 1017,4 3,0 -
22.09.2020 04:00:00 13,9 13,9 4 2 WSW 1017,9 8 -
22.09.2020 03:00:00 13,9 13,9 4 2 - 1018,4 8 -
22.09.2020 02:00:00 13,7 13,7 0 0 N 1018,8 4,5 -
22.09.2020 01:00:00 14,4 14,4 2 1 N 1019,2 10 -
22.09.2020 00:00:00 14,5 14,5 4 2 NNW 1019,5 10 -
21.09.2020 23:00:00 14,8 14,8 8 4 NW 1019,6 30 -
21.09.2020 22:00:00 15,6 15,6 4 2 W 1019,3 10 -
21.09.2020 21:00:00 16,5 16,5 4 2 - 1019,0 10 -
21.09.2020 20:00:00 17,8 16,5 15 8 W 1018,8 30 -
21.09.2020 19:00:00 19,0 15,3 15 8 W 1018,7 10 -
21.09.2020 18:00:00 19,8 15,2 18 10 WSW 1018,7 10 -
21.09.2020 17:00:00 19,6 15,3 21 11 W 1018,8 30 -
21.09.2020 16:00:00 19,7 15,8 15 8 WSW 1019,0 10 -
21.09.2020 15:00:00 21,2 15,8 11 6 SW 1019,1 10 -
21.09.2020 14:00:00 20,9 14,3 9 5 W 1019,3 10 -
21.09.2020 13:00:00 20,0 15,1 11 6 SSW 1019,8 10 -
21.09.2020 12:00:00 18,8 16,1 9 5 S 1020,0 10 -
21.09.2020 11:00:00 15,1 15,1 9 5 S 1020,2 3,0 -
21.09.2020 10:00:00 14,3 14,3 9 5 SSW 1020,2 0,3 -
21.09.2020 09:00:00 14,1 14,1 5 3 SSW 1020,1 0,3 -
21.09.2020 08:00:00 14,1 14,1 9 5 SSW 1019,6 0,1 -
21.09.2020 07:00:00 14,3 14,3 8 4 S 1019,4 0,1 -
21.09.2020 06:00:00 14,3 14,3 8 4 SSW 1019,2 0,3 -
21.09.2020 05:00:00 14,7 14,7 11 6 SSW 1019,1 0,5 -
21.09.2020 04:00:00 13,9 13,9 5 3 WSW 1019,7 10 -
21.09.2020 03:00:00 14,3 14,3 4 2 N 1020,0 10 -
21.09.2020 02:00:00 15,0 15,0 8 4 SW 1020,1 10 -
21.09.2020 01:00:00 14,7 14,7 8 4 WSW 1020,0 10 -
21.09.2020 00:00:00 14,9 14,9 5 3 WSW 1020,4 10 -
20.09.2020 23:00:00 15,9 15,9 2 1 - 1020,5 10 -
20.09.2020 22:00:00 16,0 16,0 2 1 WSW 1020,2 10 -
20.09.2020 21:00:00 16,9 16,9 11 6 WNW 1019,3 10 -
20.09.2020 20:00:00 18,0 16,3 8 4 W 1019,1 10 -
20.09.2020 19:00:00 18,2 16,3 11 6 WSW 1018,8 10 -
20.09.2020 18:00:00 18,8 17,0 15 8 WSW 1018,4 10 -
20.09.2020 17:00:00 19,4 17,8 21 11 WSW 1017,8 25 -
20.09.2020 16:00:00 20,1 18,3 24 13 W 1017,4 10 -
20.09.2020 15:00:00 19,8 19,2 18 10 WSW 1017,7 10 -
20.09.2020 14:00:00 19,8 18,9 9 5 W 1017,5 10 -
20.09.2020 13:00:00 19,0 19,0 5 3 SW 1017,7 8 -
20.09.2020 12:00:00 17,9 17,9 4 2 - 1017,5 3,0 -
20.09.2020 11:00:00 17,0 17,0 5 3 S 1017,0 1,5 -
20.09.2020 10:00:00 16,6 16,6 8 4 S 1016,5 0,7 -
20.09.2020 09:00:00 16,7 16,7 8 4 S 1016,2 0,1 -
20.09.2020 08:00:00 16,7 16,7 5 3 S 1015,6 0,3 -
20.09.2020 07:00:00 16,6 16,6 5 3 SSW 1015,1 6 -
20.09.2020 06:00:00 16,6 16,6 2 1 - 1015,1 0,4 -
20.09.2020 05:00:00 16,7 16,7 5 3 SSW 1014,8 7 -
20.09.2020 04:00:00 16,8 16,8 4 2 SSW 1015,0 5 -
20.09.2020 03:00:00 16,9 16,9 9 5 SSW 1015,2 3,0 -
20.09.2020 02:00:00 17,2 17,2 4 2 - 1015,3 10 -
20.09.2020 01:00:00 17,2 17,2 2 1 - 1015,3 10 -
20.09.2020 00:00:00 17,4 17,4 5 3 W 1015,4 10 -
19.09.2020 23:00:00 17,4 17,4 9 5 S 1015,3 7 -
19.09.2020 22:00:00 17,2 17,2 8 4 S 1015,0 7 -
19.09.2020 21:00:00 17,3 17,3 11 6 S 1014,6 9 -
19.09.2020 20:00:00 19,0 15,6 11 6 - 1014,0 10 -
19.09.2020 19:00:00 20,2 18,7 4 2 - 1013,3 10 -
19.09.2020 18:00:00 21,0 16,9 11 6 NNE 1013,1 10 -
19.09.2020 17:00:00 20,6 17,0 11 6 N 1013,2 10 -
19.09.2020 16:00:00 20,8 18,7 8 4 NE 1013,5 10 -
19.09.2020 15:00:00 18,8 17,6 5 3 NW 1014,3 10 -
19.09.2020 14:00:00 18,4 18,4 11 6 W 1014,3 10 -
19.09.2020 13:00:00 20,0 18,0 9 5 S 1014,4 10 -
19.09.2020 12:00:00 19,1 19,1 8 4 - 1014,0 7 -
19.09.2020 11:00:00 17,1 17,1 8 4 S 1013,9 5 -
19.09.2020 10:00:00 16,4 16,4 11 6 S 1013,2 0,4 -
19.09.2020 09:00:00 16,3 16,3 9 5 S 1012,8 0,3 -
19.09.2020 08:00:00 16,0 16,0 5 3 SSW 1012,1 8 -
19.09.2020 07:00:00 16,0 16,0 5 3 SSW 1011,5 6 -
19.09.2020 06:00:00 16,2 16,2 4 2 - 1011,0 1,5 -
19.09.2020 05:00:00 16,7 16,7 8 4 S 1010,5 4,0 -
19.09.2020 04:00:00 17,3 17,3 8 4 SW 1009,9 10 -
19.09.2020 03:00:00 17,6 16,7 13 7 SW 1009,4 10 -
19.09.2020 02:00:00 17,5 17,3 9 5 SW 1009,1 10 -
19.09.2020 01:00:00 18,2 17,0 4 2 - 1008,6 10 -

tt = temperature
td = dewpoint
ff = wind speed
dd = wind direction
ppp = reduced air pressure
vv = visibility
rr = precipitation

Next stations